Vertical_Velocity
-1 -1 -2 -2 -3 -1 -3 -3 -1 -1 -2 -3 -2 -1 -1 -2 -2 -2 -1 -0 -0 0 -1 -1 -1 -0 -1 -1 -1 -0 -1 -2 -2 -1 -2 -2 -2 -1 -2 -0 -1 -2 -0 -3 -1 -2 -1
2 -1 1 3 4 2 0 1 0 -2 -2 -2 -0 -1 -1 -1 -2 -2 -1 -0 0 0 1 1 -1 -1 -1 -2 -1 -1 -1 -1 -1 -2 -2 -1 -1 -1 -2 -2 -2 1 -1 0 -2 -2 0
-0 -2 0 0 -1 -0 2 1 1 1 1 0 -0 -1 0 -1 -2 -2 -3 -1 -1 0 -2 -5 -4 -5 -4 -2 -1 -2 -2 -2 -2 -1 -2 -2 -2 -1 -0 -2 -4 -1 -1 -2 -5 -2 1
-1 -0 -1 -1 -1 -0 -1 1 2 2 0 -1 -1 -1 -1 -1 1 -1 -3 -3 -4 -3 -2 -2 -1 -1 -0 -1 -2 -1 -1 -0 -1 -0 0 -0 -1 -2 -1 -3 -1 -4 -3 0 -2 -3 -4
0 0 1 -1 -3 -3 -2 -2 -0 0 1 -1 -0 -2 -1 -2 -2 -1 -1 -3 -3 -2 -1 -1 -1 -2 -1 -1 -1 -1 0 -1 -1 -1 -2 -1 -2 -2 -3 -0 -1 -4 0 -3 -1 -2 0
1 -2 -1 0 0 0 1 -1 -1 -1 -1 0 -1 -1 -1 -1 -0 2 1 0 -1 -3 -3 -0 -0 -1 -1 0 0 -3 1 1 -1 -0 -1 -1 -1 -0 -3 -1 -3 -3 1 -1 -4 -3 -3
-1 0 1 -1 -2 -1 -1 -1 -2 -1 -0 -2 -1 -0 -2 -1 -1 -0 -1 -4 -2 0 -0 -0 1 -1 -1 0 0 -0 0 -1 -1 -1 -2 1 1 -3 -0 -1 -3 -4 -6 -4 -4 -9 -8
-1 -1 -1 -0 -1 -1 -0 -0 -1 -1 -1 -2 -2 -2 0 -2 -0 3 3 2 0 1 2 -0 -2 -1 -1 -2 -0 -0 -1 -2 -0 -1 -1 -1 -1 -2 -1 -1 0 -1 -2 -1 11 -1 -20
-2 -1 -1 -1 -0 -1 -1 -0 -0 -1 -0 -1 -2 -2 -3 -1 -0 -1 -0 -1 1 1 -1 0 -3 -1 1 -0 0 0 0 0 1 -1 -1 1 4 -3 2 -3 0 -3 -6 -3 -11 5 2
-1 -0 0 -1 -1 -2 -1 0 -2 -1 -2 -1 -1 -1 -2 -2 -3 1 1 1 -0 2 -1 -2 -2 -1 -2 -0 -0 -1 -1 -2 -1 -1 -2 1 -5 -2 -0 0 -5 2 -1 -6 -3 -7 -2
-2 -3 -0 -0 -1 -0 -0 -2 -1 -0 -0 -2 -2 -1 -1 -4 -1 -2 -2 -2 -2 -1 -3 -2 -5 -4 -3 1 -4 -0 -1 -1 -0 -1 -2 -13 -1 2 -2 -4 -4 -6 -2 -4 -1 -2 -18
1 0 0 0 -1 -1 0 -0 -1 -2 -2 -1 -2 -2 -0 -1 -2 -4 -2 0 0 -0 -4 -1 -1 -3 -1 -1 -2 1 -1 -0 -0 -4 2 4 -3 5 1 2 -1 -0 -4 -4 -4 -1 -8
-1 1 1 1 1 -0 -2 -2 -1 -1 0 0 -0 -1 -2 -1 -2 0 0 -1 -0 -0 3 1 -2 -2 0 0 1 0 3 4 -5 -5 2 -0 -1 -3 4 4 -4 -1 -7 -10 -14 -4 4
-1 -1 -0 -0 1 -1 1 1 0 -1 1 -1 0 -1 -1 -3 -1 -2 -2 -2 -5 -0 -3 -2 -3 -4 1 -2 2 -5 2 4 -4 1 -6 1 -3 4 6 3 2 -2 -1 9 -25 -2 -11
-2 0 -0 0 0 3 0 -1 0 1 -2 -0 -0 -2 -1 -1 -0 1 -1 -2 -0 -0 -1 -3 -4 -1 -0 -3 -3 -0 -2 -1 6 6 2 -7 -0 -5 0 2 -2 1 1 -1 -18 18 -24
1 -0 -0 1 -1 -0 -0 1 -1 -2 0 -1 0 -1 -2 -1 -1 -1 0 2 -4 -7 -2 -3 1 -6 -6 6 -6 -7 1 9 1 -3 1 -2 -11 1 -1 4 -5 3 -2 5 13 -23 -2
-3 0 1 0 -1 -2 -1 -3 1 1 -1 -1 -1 -1 -2 -2 -1 1 -0 1 -1 -1 -1 -2 -1 -4 -2 -6 -1 -7 -3 -3 4 -3 -3 0 4 7 -2 -8 -1 5 -4 -13 9 14 2
-3 -2 0 -1 -1 -1 -0 0 -1 -3 -1 -0 1 -2 1 -2 -4 -1 0 2 4 -5 -4 -1 -2 -2 -2 3 -0 -3 -4 4 -0 0 -5 9 -12 -4 -0 4 4 1 -6 9 12 9 2
-2 -1 -3 -1 -2 -0 -0 -1 -0 -1 1 -0 1 2 -1 -2 -3 2 -2 -0 -2 5 -0 2 -5 -0 3 2 -15 3 6 8 0 -3 -7 5 -16 -5 -12 -6 -1 -2 -5 -4 -8 -4 7
-0 -2 0 -4 -3 -3 -1 -1 -1 -0 -1 -1 -2 -1 -1 -3 -4 1 3 3 -5 2 2 -1 -2 -0 -3 1 4 -13 -5 -5 3 1 -2 -7 7 6 5 -5 -4 5 8 8 0 -4 3
9 2 6 1 -4 -2 -1 -2 0 -2 -0 0 1 0 -1 -4 -4 -1 -2 2 4 -2 1 -0 3 4 2 -1 3 -1 0 -2 -1 3 3 -1 3 -4 3 2 -3 -0 3 5 2 1 -1
5 4 5 5 1 -2 -4 -4 -1 -2 -1 -0 2 2 -2 4 -2 -4 -3 5 2 1 2 6 1 -3 3 5 3 -4 6 5 0 -7 -4 -3 -7 -7 6 5 -4 0 11 -0 2 -1 -0
4 6 8 7 3 2 -0 -4 -2 -1 -4 -1 0 -1 -0 9 1 -2 3 -4 1 -1 4 2 2 -1 0 4 0 -1 3 -2 -1 -1 -2 2 -4 -7 2 2 -4 -1 1 4 1 -0 3
6 8 7 3 -1 -2 -0 -2 -4 -0 1 -2 2 1 -0 3 -0 -0 1 -2 -1 5 -1 1 -0 3 2 2 -0 1 0 1 1 -4 -0 -6 -5 -4 -8 -0 -5 -0 -4 -1 -0 4 4
-0 -1 17 3 3 5 -2 -1 -1 -1 -2 -1 -1 5 -6 2 1 4 4 -1 -6 -1 5 -2 1 2 -3 -5 -5 -3 0 4 5 10 5 2 0 -1 -1 -2 -0 1 -5 -11 -3 1 5
9 4 5 5 3 -1 0 2 -1 -2 1 1 1 -2 3 -7 3 4 3 -1 1 -3 1 -0 -2 -1 1 1 0 -3 -5 -5 -14 -2 0 4 2 0 7 -5 -12 -3 -2 -3 -1 -2 2
4 9 5 8 5 -0 -1 0 4 -2 -3 0 1 0 4 -1 -5 3 7 -4 1 -4 -4 -1 3 -2 7 2 -0 -1 2 2 2 -2 -5 -5 -3 -1 1 2 -8 -0 -4 -10 -4 -5 -3
-1 1 -1 -2 7 -1 2 -4 2 -2 0 -5 0 3 3 -0 -2 -1 2 2 5 -0 -4 -1 1 4 -6 -2 3 1 -3 -1 3 1 -1 -2 -3 -4 -3 -1 -8 4 -5 3 2 -0 -6
8 5 8 -7 -1 -4 2 -4 3 3 -4 -1 -1 -3 -0 3 3 -1 3 0 6 -4 -6 -2 0 -2 -10 -2 -5 2 -4 -1 3 -2 0 -7 -3 -4 -2 1 -3 -2 2 -2 2 -2 2
Height
5821 5822 5823 5824 5824 5825 5825 5826 5826 5826 5826 5826 5826 5825 5823 5822 5820 5818 5817 5817 5818 5818 5819 5819 5820 5820 5820 5819 5818 5817 5816 5815 5814 5812 5811 5810 5810 5810 5809 5809 5808 5807 5807 5806 5806 5805 5805
5818 5820 5821 5822 5823 5823 5824 5824 5824 5824 5824 5824 5823 5822 5821 5819 5817 5816 5815 5816 5816 5818 5819 5819 5819 5818 5818 5818 5816 5815 5814 5813 5811 5809 5808 5807 5806 5806 5805 5805 5805 5804 5803 5802 5801 5800 5800
5814 5816 5818 5819 5820 5821 5821 5821 5821 5821 5821 5820 5820 5819 5818 5817 5815 5815 5815 5815 5816 5818 5818 5819 5818 5818 5816 5816 5814 5812 5810 5809 5807 5806 5804 5803 5802 5802 5801 5800 5800 5799 5799 5797 5797 5796 5796
5811 5812 5813 5815 5816 5817 5818 5819 5819 5819 5819 5818 5817 5816 5815 5813 5813 5813 5813 5814 5816 5817 5817 5817 5816 5814 5813 5812 5810 5808 5805 5803 5801 5800 5798 5797 5797 5796 5795 5795 5795 5793 5794 5793 5793 5792 5791
5810 5812 5812 5813 5813 5813 5814 5815 5815 5815 5815 5815 5814 5813 5812 5810 5810 5810 5811 5812 5813 5813 5813 5813 5813 5811 5809 5807 5805 5802 5800 5798 5797 5795 5794 5793 5792 5792 5790 5790 5790 5788 5788 5787 5787 5786 5786
5808 5809 5810 5811 5811 5811 5811 5810 5810 5811 5811 5811 5811 5810 5809 5807 5806 5806 5807 5808 5808 5809 5809 5808 5808 5808 5805 5802 5799 5797 5795 5793 5791 5790 5790 5788 5788 5786 5785 5784 5783 5782 5782 5782 5781 5780 5779
5805 5806 5807 5808 5809 5809 5808 5807 5807 5807 5807 5807 5807 5806 5805 5804 5803 5803 5804 5805 5806 5805 5803 5803 5803 5801 5798 5797 5795 5793 5791 5790 5788 5787 5786 5785 5784 5781 5780 5778 5776 5775 5775 5774 5772 5771 5770
5801 5802 5804 5804 5805 5806 5806 5806 5805 5804 5803 5803 5802 5802 5802 5801 5800 5798 5798 5798 5798 5799 5798 5798 5797 5795 5793 5791 5790 5788 5786 5785 5784 5782 5782 5781 5779 5776 5774 5773 5771 5770 5769 5767 5767 5764 5762
5797 5798 5799 5800 5801 5801 5802 5802 5802 5802 5801 5800 5798 5797 5797 5796 5796 5796 5795 5795 5795 5795 5795 5794 5792 5790 5788 5787 5785 5783 5781 5779 5778 5777 5776 5774 5773 5770 5767 5765 5763 5761 5760 5758 5756 5754 5751
5794 5794 5794 5795 5796 5797 5797 5797 5797 5797 5796 5795 5795 5793 5792 5791 5793 5791 5791 5791 5790 5789 5790 5790 5787 5785 5784 5780 5778 5776 5775 5775 5773 5773 5770 5768 5766 5763 5760 5757 5755 5752 5750 5747 5745 5742 5739
5789 5790 5790 5790 5791 5792 5793 5793 5793 5792 5791 5791 5790 5789 5788 5786 5786 5786 5787 5786 5786 5786 5784 5784 5782 5779 5776 5775 5773 5771 5769 5767 5767 5766 5764 5760 5756 5753 5752 5748 5745 5743 5739 5736 5732 5728 5724
5784 5785 5786 5787 5787 5787 5787 5787 5787 5787 5786 5785 5784 5784 5783 5782 5780 5781 5781 5780 5780 5781 5777 5777 5774 5772 5771 5769 5766 5764 5763 5761 5760 5757 5753 5750 5747 5745 5742 5737 5733 5730 5726 5722 5717 5714 5709
5779 5780 5780 5781 5782 5782 5782 5782 5781 5781 5780 5780 5779 5778 5777 5777 5776 5775 5774 5774 5775 5773 5771 5770 5767 5765 5764 5762 5759 5755 5753 5752 5750 5747 5745 5741 5737 5735 5732 5727 5722 5718 5712 5707 5705 5699 5698
5774 5774 5774 5775 5776 5776 5776 5775 5775 5776 5775 5774 5773 5771 5771 5771 5770 5769 5769 5769 5768 5766 5763 5762 5760 5757 5756 5754 5751 5747 5744 5742 5740 5737 5733 5729 5724 5723 5719 5714 5709 5702 5697 5692 5685 5683 5684
5768 5769 5770 5770 5769 5770 5769 5768 5769 5769 5769 5769 5767 5766 5764 5764 5764 5764 5763 5761 5759 5758 5757 5755 5753 5749 5747 5745 5741 5738 5734 5732 5729 5725 5721 5715 5713 5709 5704 5699 5695 5689 5682 5676 5668 5665 5657
5760 5761 5762 5763 5763 5764 5764 5764 5762 5762 5762 5762 5761 5761 5758 5758 5757 5756 5755 5754 5752 5749 5748 5746 5744 5740 5736 5735 5732 5727 5722 5722 5717 5713 5709 5704 5699 5696 5692 5687 5680 5676 5670 5662 5652 5642 5634
5753 5754 5755 5756 5756 5757 5757 5757 5757 5756 5755 5755 5755 5753 5752 5751 5749 5748 5747 5745 5743 5741 5739 5737 5734 5730 5727 5723 5719 5715 5711 5709 5705 5700 5695 5690 5687 5682 5677 5670 5664 5658 5649 5642 5636 5625 5612
5744 5746 5747 5748 5749 5750 5750 5750 5749 5749 5748 5747 5747 5746 5745 5744 5743 5740 5739 5736 5735 5732 5729 5726 5723 5719 5716 5713 5708 5704 5702 5697 5693 5687 5682 5677 5670 5667 5662 5655 5648 5642 5633 5626 5614 5605 5589
5734 5737 5739 5740 5740 5741 5742 5741 5741 5740 5739 5739 5738 5738 5737 5734 5733 5731 5729 5726 5724 5722 5718 5716 5712 5709 5705 5701 5696 5692 5689 5685 5680 5674 5668 5664 5656 5650 5642 5638 5629 5620 5610 5600 5592 5582 5574
5723 5726 5729 5732 5731 5732 5732 5732 5731 5731 5731 5731 5731 5730 5728 5724 5722 5720 5718 5716 5714 5711 5707 5704 5700 5697 5692 5688 5683 5679 5676 5672 5667 5661 5655 5648 5643 5636 5627 5617 5611 5604 5593 5582 5569 5558 5550
5714 5716 5718 5720 5721 5722 5723 5723 5721 5721 5722 5723 5721 5720 5717 5715 5712 5709 5706 5705 5702 5700 5696 5692 5689 5685 5679 5675 5671 5666 5662 5658 5654 5648 5641 5633 5627 5619 5609 5599 5590 5581 5570 5562 5550 5540 5530
5704 5706 5708 5708 5710 5710 5712 5711 5711 5712 5712 5712 5711 5709 5705 5703 5700 5698 5695 5693 5690 5687 5684 5680 5675 5671 5667 5663 5659 5653 5649 5644 5638 5632 5625 5618 5609 5600 5590 5580 5568 5559 5551 5539 5531 5521 5514
5693 5695 5696 5697 5698 5699 5699 5701 5702 5702 5701 5699 5697 5697 5694 5692 5688 5687 5684 5681 5678 5674 5672 5667 5663 5658 5654 5650 5645 5641 5636 5629 5622 5615 5606 5599 5589 5578 5571 5559 5548 5541 5535 5527 5516 5509 5502
5682 5684 5684 5684 5686 5688 5689 5690 5691 5690 5689 5688 5687 5685 5684 5681 5677 5674 5671 5669 5666 5663 5658 5656 5651 5647 5643 5638 5633 5628 5622 5615 5607 5598 5588 5577 5567 5556 5550 5538 5530 5523 5518 5513 5506 5499 5492
5670 5675 5673 5674 5675 5675 5677 5678 5679 5678 5678 5677 5676 5675 5673 5671 5666 5662 5659 5657 5654 5652 5648 5644 5642 5637 5632 5628 5622 5615 5609 5600 5592 5582 5570 5558 5546 5538 5528 5520 5512 5508 5502 5498 5494 5491 5484
5661 5664 5663 5664 5665 5666 5667 5667 5667 5667 5666 5665 5664 5664 5662 5659 5657 5652 5648 5646 5642 5640 5639 5635 5631 5626 5621 5614 5608 5599 5590 5583 5571 5563 5553 5541 5531 5522 5514 5504 5499 5498 5492 5487 5481 5479 5474
5651 5653 5655 5654 5655 5657 5658 5657 5657 5657 5655 5653 5652 5651 5650 5647 5645 5640 5638 5635 5632 5630 5628 5625 5620 5616 5609 5601 5593 5585 5575 5565 5553 5541 5530 5522 5515 5510 5502 5497 5492 5486 5481 5475 5473 5472 5463
5638 5643 5647 5645 5646 5649 5649 5649 5647 5648 5646 5645 5643 5641 5640 5637 5634 5631 5627 5626 5623 5621 5619 5615 5610 5603 5596 5587 5579 5568 5559 5546 5534 5523 5512 5505 5499 5496 5493 5489 5485 5479 5474 5469 5465 5459 5454
5626 5630 5632 5631 5637 5642 5641 5641 5638 5635 5636 5636 5636 5634 5630 5627 5624 5622 5620 5617 5614 5611 5607 5602 5597 5590 5581 5572 5562 5552 5540 5528 5517 5509 5500 5496 5492 5487 5485 5480 5474 5470 5465 5460 5457 5452 5447